[[{"header":{"parameterUnit":"m.s-1","parameterCategory":1,"la1":30.2991,"la2":30.254,"lo1":-89.0895,"lo2":-89.0444,"dy":0.0017,"dx":0.0017,"nx":28,"ny":28,"refTime":"2025-07-09T09:00:00:Z","depth":0,"parameterNumber":2,"parameterNumberName":"U-component_of_WINDS"},"data":[0,0,0,0,0,0,0,0,0,0,0,0,0,0,0,0,0,0,0,0,0,0,0,0,0,0,0,0,0,0,0,0,0,0,0,0,0,0,0,0,0,0,0,0,0,0,0,0,0,0,0,0,0,0,0,0,0,0,3.9852,3.9853,0,3.994,3.994,3.9941,3.9873,3.987,3.9867,3.9864,3.9953,3.9958,3.9963,0,0,0,0,0,0,0,0,0,0,0,0,0,3.9623,3.9628,3.9852,3.9853,3.9854,3.9939,3.9941,3.9942,3.9873,3.987,3.9866,3.9863,3.9951,3.9957,3.9964,0,0,0,0,0,0,0,0,0,0,0,0,0,3.9718,3.9629,3.9852,3.983,3.9829,3.9939,3.9941,3.9942,3.9874,3.987,3.9865,3.9861,3.9949,3.9957,3.9964,4.01,0,0,3.9988,3.9991,0,0,0,0,0,0,0,0,3.9713,3.9726,3.9832,3.9832,3.9831,3.9891,3.9892,3.9995,3.9875,3.9857,3.9864,3.9859,3.9936,3.9944,3.997,4.0104,4.0108,3.9989,3.9993,3.9996,3.9999,0,0,0,0,0,0,0,3.9706,3.9722,3.9886,3.9834,3.9833,3.9815,3.9824,3.9912,3.992,3.9858,3.9853,3.9865,3.9935,3.9963,3.9972,4.0109,3.9988,3.9995,4.0,4.0003,4.0356,4.036,0,0,0,0,0,0,3.9702,3.9717,3.9884,3.9889,3.976,3.9823,3.9833,3.9876,3.9919,3.9921,3.9868,3.9861,3.9952,3.9963,3.9975,4.0135,3.9996,4.0004,4.0008,4.0351,4.0357,4.0362,0,0,0,0,0,0,3.9697,3.9717,3.988,3.9802,3.9821,3.9832,3.9881,3.988,3.9908,3.9927,3.9928,3.9896,3.9949,3.9964,4.0069,4.0137,4.0007,4.0014,4.0346,4.0353,4.036,4.0457,0,0,0,0,0,0,3.9691,3.9716,3.9768,3.9804,3.9826,3.9974,3.9885,3.9885,3.9922,3.9913,3.9953,3.9955,3.9947,4.0058,4.0077,4.0145,4.002,4.0339,4.0349,4.0357,4.0447,4.0466,4.0482,0,0,0,0,0,3.9683,3.9793,3.9772,3.9792,3.9891,3.9978,3.999,3.9979,3.9928,3.998,3.9991,3.9954,4.0127,4.0069,4.009,4.0162,4.0335,4.0346,4.0357,4.044,4.0463,4.0482,0,0,0,0,0,0,3.9766,3.9797,3.9774,3.9898,3.9936,3.9966,4.0032,4.0004,4.0057,4.0046,4.0029,4.0039,4.0148,4.0165,4.0101,4.0294,4.0223,4.0238,4.0279,4.0301,4.0318,4.0311,4.0026,0,0,0,0,0,3.9798,3.9866,3.989,3.9997,4.0017,4.0021,4.0059,4.0046,4.0084,4.01,4.0119,4.0157,4.0219,4.0261,4.032,4.045,4.0456,4.0509,4.0526,4.0541,4.0554,4.0622,4.0645,4.0397,4.0397,4.0397,0,0,3.9867,3.9892,3.9936,4.0015,4.0042,4.0112,4.0035,4.0113,4.0164,4.0112,4.0211,4.0227,4.0268,4.0385,4.0438,4.0403,4.0624,4.0554,4.0566,4.0571,4.0635,4.0658,4.0679,4.0405,4.0403,4.0402,0,0,4.0026,4.0053,4.0145,4.0174,4.0216,4.0218,4.024,4.0274,4.0282,4.0382,4.0343,4.0404,4.0512,4.0542,4.0572,4.0741,4.0708,4.0761,4.0852,4.0918,4.0938,4.0955,4.1014,4.1035,4.0774,4.0774,4.0775,0,4.0106,4.021,4.0195,4.0275,4.031,4.0265,4.0357,4.0386,4.0445,4.047,4.043,4.0564,4.0588,4.0711,4.0752,4.0778,4.0802,4.0756,4.0936,4.0953,4.0969,4.1025,4.1047,4.078,4.078,4.0779,4.0779,0,4.0305,4.0377,4.0446,4.0504,4.0547,4.0632,4.0629,4.0674,4.0658,4.0663,4.0764,4.0792,4.0855,4.0883,4.0868,4.1003,4.098,4.0939,4.0866,4.0999,4.1051,4.1072,4.0789,4.0787,4.0785,4.0784,0,0,4.052,4.0567,4.0593,4.0618,4.066,4.0716,4.0799,4.086,4.0897,4.094,4.1008,4.11,4.1061,4.1095,4.1082,4.1141,4.1271,4.1092,4.1092,4.1123,4.1419,4.1449,4.1474,4.1249,4.1253,4.1256,4.1415,0,4.0681,4.0825,4.0813,4.0949,4.1015,4.0972,4.1044,4.1077,4.1084,4.114,4.1148,4.1213,4.1158,4.1177,4.1233,4.1243,4.133,4.1232,4.1311,4.1314,4.1301,4.1502,4.1534,4.1683,4.1435,4.1439,4.1441,0,4.0888,4.0936,4.1079,4.1109,4.1137,4.1202,4.1255,4.131,4.1346,4.1347,4.1384,4.1361,4.1443,4.1369,4.1481,4.1414,4.1446,4.1456,4.1461,4.1467,4.1385,4.1512,4.173,4.1752,4.1474,4.1471,4.1469,0,4.1028,4.113,4.1227,4.125,4.1289,4.1335,4.1353,4.1385,4.1422,4.1469,4.1492,4.1548,4.1578,4.1622,4.1614,4.1561,4.1727,4.1653,4.1729,4.1729,4.1765,4.1763,4.199,4.1788,4.1787,4.1787,4.1787,0,4.1209,4.1297,4.1291,4.1351,4.1448,4.1433,4.1529,4.1542,4.157,4.1631,4.1598,4.1655,4.1642,4.1699,4.1694,4.1786,4.18,4.1802,4.18,4.1805,4.1804,4.1825,4.1814,4.1793,4.1792,4.179,4.1789,0,4.1382,4.1382,4.1485,4.1513,4.1522,4.1592,4.1615,4.1671,4.1675,4.1752,4.1769,4.1775,4.184,4.1837,4.1911,4.1907,4.202,4.2006,4.2008,4.2004,4.2079,4.2072,4.2326,4.2358,4.2137,4.2139,4.2141,0,4.1497,4.1564,4.1598,4.1636,4.1657,4.172,4.1757,4.1744,4.1783,4.1828,4.1879,4.194,4.1989,4.2095,4.2105,4.2161,4.2147,4.2232,4.2155,4.2158,4.2147,4.2142,4.2148,4.2247,4.225,4.2252,4.2254,0,4.17,4.1696,4.175,4.1805,4.1849,4.1891,4.193,4.1963,4.1954,4.1999,4.2065,4.2103,4.2178,4.2239,4.2292,4.2309,4.228,4.2278,4.2298,4.2303,4.2301,4.2302,4.2048,4.2272,4.227,4.2269,4.2268,4.2267,4.1847,4.1903,4.1936,4.1997,4.2024,4.206,4.2113,4.2123,4.2178,4.2237,4.2226,4.23,4.2332,4.24,4.2423,4.2479,4.2448,4.2478,4.2485,4.2493,4.25,4.2293,4.2489,4.2488,4.2488,4.2487,4.2487,0,4.2047,4.2065,4.2121,4.2175,4.2223,4.2191,4.2231,4.2273,4.2338,4.2371,4.2419,4.2493,4.2552,4.2566,4.2622,4.2665,4.2652,4.268,4.2676,4.268,4.2525,4.2502,4.2689,4.2689,4.2689,4.2689,4.2689,4.2689,4.2156,4.225,4.2249,4.2355,4.2372,4.2444,4.2469,4.2501,4.2527,4.2612,4.266,4.2669,4.2694,4.2751,4.2803,4.2805,4.2827,4.286,4.2857,4.2712,4.2691,4.2672,4.265,4.2865,4.2865,4.3007,4.3008,4.3009]},{"header":{"parameterUnit":"m.s-1","parameterCategory":1,"la1":30.2991,"la2":30.254,"lo1":-89.0895,"lo2":-89.0444,"dy":0.0017,"dx":0.0017,"nx":28,"ny":28,"refTime":"2025-07-09T09:00:00:Z","depth":0,"parameterNumber":3,"parameterNumberName":"V-component_of_WINDS"},"data":[0,0,0,0,0,0,0,0,0,0,0,0,0,0,0,0,0,0,0,0,0,0,0,0,0,0,0,0,0,0,0,0,0,0,0,0,0,0,0,0,0,0,0,0,0,0,0,0,0,0,0,0,0,0,0,0,0,0,-0.334,-0.334,0,-0.339,-0.3391,-0.3391,-0.342,-0.342,-0.342,-0.342,-0.3473,-0.3475,-0.3476,0,0,0,0,0,0,0,0,0,0,0,0,0,-0.3271,-0.3272,-0.334,-0.3341,-0.3341,-0.339,-0.3391,-0.3391,-0.342,-0.342,-0.342,-0.342,-0.3473,-0.3475,-0.3476,0,0,0,0,0,0,0,0,0,0,0,0,0,-0.3309,-0.3273,-0.334,-0.3361,-0.3364,-0.339,-0.3391,-0.3392,-0.342,-0.342,-0.342,-0.342,-0.3473,-0.3474,-0.3476,-0.3486,0,0,-0.3482,-0.3483,0,0,0,0,0,0,0,0,-0.3307,-0.3312,-0.3357,-0.336,-0.3363,-0.3399,-0.3386,-0.3423,-0.342,-0.3399,-0.342,-0.342,-0.3449,-0.3453,-0.3462,-0.3488,-0.349,-0.3483,-0.3484,-0.3485,-0.3485,0,0,0,0,0,0,0,-0.3304,-0.331,-0.336,-0.3358,-0.3361,-0.3369,-0.3375,-0.3393,-0.3422,-0.34,-0.3403,-0.3408,-0.345,-0.346,-0.3463,-0.3491,-0.3483,-0.3484,-0.3486,-0.3486,-0.3529,-0.3529,0,0,0,0,0,0,-0.3298,-0.3307,-0.3358,-0.3361,-0.3335,-0.337,-0.3377,-0.3387,-0.3422,-0.3428,-0.3408,-0.3409,-0.3456,-0.3461,-0.3465,-0.3479,-0.3485,-0.3487,-0.3488,-0.3529,-0.3529,-0.3529,0,0,0,0,0,0,-0.3296,-0.3302,-0.3356,-0.3335,-0.3342,-0.3371,-0.3383,-0.3388,-0.3398,-0.3428,-0.3433,-0.3412,-0.3457,-0.3462,-0.3481,-0.3481,-0.3487,-0.3489,-0.3529,-0.3529,-0.3529,-0.3506,0,0,0,0,0,0,-0.3294,-0.3301,-0.3305,-0.3335,-0.3343,-0.337,-0.3383,-0.3389,-0.3401,-0.3403,-0.3433,-0.3439,-0.3457,-0.3477,-0.3483,-0.3484,-0.3491,-0.3529,-0.3529,-0.3529,-0.3507,-0.3505,-0.3504,0,0,0,0,0,-0.3292,-0.3296,-0.3305,-0.3311,-0.3348,-0.337,-0.3375,-0.3396,-0.3401,-0.3405,-0.3424,-0.3438,-0.348,-0.3479,-0.3485,-0.3487,-0.3529,-0.3529,-0.3529,-0.3508,-0.3506,-0.3504,0,0,0,0,0,0,-0.3266,-0.3301,-0.331,-0.3324,-0.3344,-0.3374,-0.338,-0.3393,-0.3411,-0.3413,-0.3439,-0.3445,-0.3461,-0.3476,-0.3474,-0.3499,-0.3507,-0.3508,-0.3488,-0.3486,-0.3485,-0.3481,-0.3492,0,0,0,0,0,-0.3262,-0.3276,-0.3306,-0.3316,-0.3325,-0.3351,-0.3361,-0.3375,-0.3397,-0.3405,-0.3426,-0.3447,-0.3465,-0.3477,-0.3495,-0.351,-0.3517,-0.3514,-0.3513,-0.3511,-0.3512,-0.3522,-0.3521,-0.3529,-0.3529,-0.3529,0,0,-0.3253,-0.3274,-0.3282,-0.3311,-0.3328,-0.3343,-0.3357,-0.3372,-0.3384,-0.3408,-0.3426,-0.3442,-0.3467,-0.3484,-0.3492,-0.3497,-0.3512,-0.3511,-0.351,-0.3511,-0.3521,-0.3521,-0.352,-0.3529,-0.3529,-0.3529,0,0,-0.3246,-0.3263,-0.3273,-0.329,-0.3315,-0.3332,-0.3335,-0.3364,-0.3375,-0.3394,-0.3412,-0.3427,-0.3458,-0.3475,-0.3488,-0.3488,-0.3502,-0.3494,-0.3486,-0.3495,-0.3494,-0.3494,-0.3495,-0.3494,-0.3494,-0.3494,-0.3494,0,-0.3233,-0.3255,-0.3277,-0.3291,-0.3304,-0.3326,-0.3337,-0.3353,-0.3383,-0.3391,-0.3396,-0.3436,-0.3454,-0.3475,-0.3476,-0.3485,-0.349,-0.349,-0.3492,-0.3492,-0.3492,-0.3493,-0.3493,-0.3493,-0.3493,-0.3493,-0.3494,0,-0.3238,-0.3253,-0.3259,-0.3287,-0.33,-0.3313,-0.3338,-0.3349,-0.3363,-0.338,-0.3399,-0.3422,-0.3446,-0.3452,-0.3466,-0.3476,-0.3478,-0.3487,-0.3496,-0.349,-0.3491,-0.3492,-0.3492,-0.3492,-0.3492,-0.3493,0,0,-0.3215,-0.3255,-0.3257,-0.327,-0.33,-0.3313,-0.3327,-0.335,-0.336,-0.338,-0.3393,-0.3419,-0.3428,-0.3443,-0.3459,-0.3467,-0.3466,-0.3475,-0.3476,-0.3473,-0.348,-0.3473,-0.3473,-0.3476,-0.3476,-0.3476,-0.3478,0,-0.3212,-0.3237,-0.3258,-0.3276,-0.3291,-0.3313,-0.3326,-0.3346,-0.3363,-0.3379,-0.3398,-0.3416,-0.3426,-0.3435,-0.3444,-0.3464,-0.3468,-0.3465,-0.3489,-0.3489,-0.3482,-0.3474,-0.3466,-0.3467,-0.3479,-0.3479,-0.3479,0,-0.3211,-0.3231,-0.325,-0.3279,-0.3287,-0.3297,-0.3321,-0.3335,-0.3359,-0.3371,-0.3388,-0.3404,-0.3421,-0.3428,-0.3453,-0.345,-0.3461,-0.3473,-0.3474,-0.3477,-0.3484,-0.3477,-0.3468,-0.3468,-0.348,-0.348,-0.348,0,-0.3193,-0.3224,-0.324,-0.3251,-0.3285,-0.3292,-0.3307,-0.3331,-0.3344,-0.3365,-0.3373,-0.3396,-0.3408,-0.3426,-0.3449,-0.3452,-0.3471,-0.348,-0.3482,-0.3482,-0.3485,-0.3485,-0.3478,-0.3492,-0.3492,-0.3492,-0.3492,0,-0.3188,-0.3199,-0.3232,-0.3242,-0.3256,-0.328,-0.3293,-0.331,-0.3331,-0.3346,-0.3366,-0.3379,-0.3409,-0.3426,-0.3444,-0.3462,-0.3467,-0.3478,-0.3483,-0.3476,-0.3475,-0.3484,-0.3485,-0.3492,-0.3492,-0.3492,-0.3492,0,-0.3169,-0.3192,-0.3211,-0.3242,-0.325,-0.3259,-0.3286,-0.3297,-0.3315,-0.3333,-0.3338,-0.3367,-0.3388,-0.3413,-0.3442,-0.3455,-0.3472,-0.3478,-0.3463,-0.3466,-0.3467,-0.3467,-0.3466,-0.3468,-0.348,-0.348,-0.348,0,-0.3164,-0.3173,-0.3205,-0.3216,-0.323,-0.3247,-0.326,-0.3285,-0.3298,-0.3327,-0.3335,-0.3357,-0.3377,-0.341,-0.3434,-0.3457,-0.3465,-0.3463,-0.3468,-0.3462,-0.3465,-0.3465,-0.3466,-0.3461,-0.3461,-0.3461,-0.3461,0,-0.3153,-0.3164,-0.3182,-0.3204,-0.3219,-0.3238,-0.3257,-0.3265,-0.3294,-0.3308,-0.333,-0.3345,-0.3375,-0.3398,-0.3424,-0.3441,-0.3456,-0.3459,-0.3461,-0.3454,-0.3445,-0.3451,-0.3459,-0.3459,-0.3459,-0.3459,-0.3459,-0.3459,-0.3141,-0.3151,-0.3175,-0.3194,-0.3212,-0.323,-0.3242,-0.3262,-0.328,-0.3306,-0.332,-0.3342,-0.3367,-0.3404,-0.342,-0.3438,-0.3443,-0.3445,-0.3446,-0.3446,-0.3445,-0.3442,-0.3443,-0.3443,-0.3443,-0.3443,-0.3443,0,-0.3131,-0.3148,-0.3166,-0.3193,-0.3209,-0.3221,-0.3244,-0.3257,-0.3275,-0.3297,-0.3316,-0.3341,-0.3364,-0.339,-0.3414,-0.3424,-0.3432,-0.343,-0.3429,-0.3433,-0.3439,-0.3435,-0.3423,-0.3423,-0.3423,-0.3423,-0.3423,-0.3423,-0.3128,-0.3145,-0.3159,-0.3185,-0.3203,-0.3223,-0.3235,-0.3253,-0.327,-0.3298,-0.3316,-0.3333,-0.3357,-0.3384,-0.3405,-0.3413,-0.3421,-0.3417,-0.3426,-0.3431,-0.3432,-0.3434,-0.3431,-0.3418,-0.3418,-0.3419,-0.3419,-0.3419]}]]